FW5910 Weather Reports


time (UTC)temp
F
wind
direction
speed
knots
gust
knots
rain 1hr
in
rain 24hr
in
rain mn
in
humidity
%
barometer
mb
20260905224235 71 208 1.7 5.2 0.00 0.00 0.00 33 1016.5
20260905223735 71 214 0.9 5.2 0.00 0.00 0.00 36 1016.5
20260905223232 72 67 0.9 2.6 0.00 0.00 0.00 36 1016.6
20260905221730 71 85 0.0 0.0 0.00 0.00 0.00 36 1016.7
20260905220731 71 88 0.9 3.5 0.00 0.00 0.00 35 1016.8
20260905215723 71 283 1.7 5.2 0.00 0.00 0.00 34 1017.1
20260905215217 70 327 0.9 3.5 0.00 0.00 0.00 34 1017.1
20260905214711 69 275 0.9 3.5 0.00 0.00 0.00 39 1017.2
20260905214204 69 113 1.7 5.2 0.00 0.00 0.00 39 1017.2
20260905213705 69 112 1.7 5.2 0.00 0.00 0.00 37 1017.3
20260905213205 69 206 1.7 3.5 0.00 0.00 0.00 37 1017.3
20260905212707 69 115 0.9 3.5 0.00 0.00 0.00 38 1017.4
20260905212203 69 131 0.9 3.5 0.00 0.00 0.00 40 1017.4
20260905211703 69 71 0.9 3.5 0.00 0.00 0.00 40 1017.4
20260905211204 69 103 0.9 3.5 0.00 0.00 0.00 39 1017.5
20260905210703 69 228 1.7 4.3 0.00 0.00 0.00 41 1017.5
20260905210202 68 256 1.7 4.3 0.00 0.00 0.00 39 1017.6
20260905205701 68 312 1.7 3.5 0.00 0.00 0.00 38 1017.5
20260905205201 68 82 0.9 2.6 0.00 0.00 0.00 40 1017.5
20260905204702 68 93 0.9 2.6 0.00 0.00 0.00 45 1017.6
20260905204201 67 93 1.7 2.6 0.00 0.00 0.00 44 1017.6
20260905203702 67 114 0.9 2.6 0.00 0.00 0.00 44 1017.6
20260905203201 66 114 0.9 5.2 0.00 0.00 0.00 46 1017.6
20260905202702 65 125 1.7 5.2 0.00 0.00 0.00 47 1017.7
20260905201703 66 125 1.7 5.2 0.00 0.00 0.00 45 1017.8
20260905201201 67 196 0.9 1.7 0.00 0.00 0.00 46 1017.8
20260905200701 67 285 0.9 2.6 0.00 0.00 0.00 46 1017.8
20260905200201 65 281 0.9 2.6 0.00 0.00 0.00 49 1017.8
20260905195203 64 95 2.6 5.2 0.00 0.00 0.00 50 1017.9
20260905194703 64 118 1.7 3.5 0.00 0.00 0.00 51 1017.9
20260905194202 63 108 0.9 1.7 0.00 0.00 0.00 54 1018.0
20260905193702 63 109 0.9 2.6 0.00 0.00 0.00 54 1017.9
20260905193201 63 109 0.9 2.6 0.00 0.00 0.00 54 1018.0
20260905192701 62 109 1.7 2.6 0.00 0.00 0.00 55 1018.1
20260905192201 61 109 2.6 3.5 0.00 0.00 0.00 56 1018.1
20260905191702 61 109 2.6 3.5 0.00 0.00 0.00 56 1018.1
20260905191201 61 102 1.7 3.5 0.00 0.00 0.00 56 1018.3
20260905190701 62 86 0.9 2.6 0.00 0.00 0.00 56 1018.3
20260905190202 62 85 0.9 2.6 0.00 0.00 0.00 56 1018.4
20260905185702 62 65 0.9 2.6 0.00 0.00 0.00 56 1018.4
20260905184701 61 95 0.9 3.5 0.00 0.00 0.00 57 1018.4
20260905183201 60 25 0.9 3.5 0.00 0.00 0.00 59 1018.4
20260905182700 59 0 1.7 4.3 0.00 0.00 0.00 62 1018.5
20260905182204 58 0 1.7 4.3 0.00 0.00 0.00 61 1018.4
20260905181204 58 0 1.7 4.3 0.00 0.00 0.00 62 1018.5
20260905180707 57 0 1.7 3.5 0.00 0.00 0.00 64 1018.6
20260905180205 57 0 1.7 4.3 0.00 0.00 0.00 63 1018.7
20260905175704 57 0 1.7 4.3 0.00 0.00 0.00 63 1018.7
20260905175204 57 0 0.9 2.6 0.00 0.00 0.00 66 1018.9
20260905174704 56 0 0.0 1.7 0.00 0.00 0.00 66 1018.8
20260905174204 56 0 0.9 1.7 0.00 0.00 0.00 67 1018.8
20260905173707 56 0 0.9 3.5 0.00 0.00 0.00 67 1018.8
20260905173203 55 0 1.7 3.5 0.00 0.00 0.00 68 1018.8
20260905172704 55 0 1.7 3.5 0.00 0.00 0.00 67 1018.8
20260905172200 55 0 1.7 5.2 0.00 0.00 0.00 67 1018.8
20260905171148 54 0 0.9 3.5 0.00 0.00 0.00 68 1018.8
20260905170640 54 0 0.9 3.5 0.00 0.00 0.00 69 1018.8
20260905170145 54 0 0.9 2.6 0.00 0.00 0.00 69 1018.8
20260905165641 54 0 0.9 3.5 0.00 0.00 0.00 69 1018.8
20260905164641 53 0 0.0 1.7 0.00 0.00 0.00 70 1018.8
20260905163639 53 0 1.7 4.3 0.00 0.00 0.00 70 1018.7
20260905163139 53 0 0.9 3.5 0.00 0.00 0.00 70 1018.7
20260905162640 52 0 0.9 2.6 0.00 0.00 0.00 70 1018.7
20260905162138 52 340 0.0 1.7 0.00 0.00 0.00 70 1018.6
20260905161636 52 339 0.0 2.6 0.00 0.00 0.00 70 1018.7
20260905161133 52 339 0.9 4.3 0.00 0.00 0.00 71 1018.8
20260905160131 52 343 0.9 2.6 0.00 0.00 0.00 73 1018.8
20260905155630 52 348 0.0 2.6 0.00 0.00 0.00 74 1018.7
20260905155130 51 325 0.0 0.0 0.00 0.00 0.00 74 1018.6
20260905154630 51 318 0.0 0.0 0.00 0.00 0.00 74 1018.6
20260905154129 51 259 0.0 0.0 0.00 0.00 0.00 74 1018.5
20260905153130 51 247 0.0 0.0 0.00 0.00 0.00 74 1018.6
20260905152626 51 246 0.0 0.0 0.00 0.00 0.00 74 1018.5
20260905152127 51 246 0.0 0.0 0.00 0.00 0.00 73 1018.6
20260905151627 51 246 0.0 0.0 0.00 0.00 0.00 73 1018.6
20260905151128 51 246 0.0 0.0 0.00 0.00 0.00 73 1018.6
20260905150625 51 246 0.0 0.0 0.00 0.01 0.00 73 1018.7
20260905150123 51 246 0.0 0.9 0.00 0.01 0.00 73 1018.6
20260905145622 51 246 0.0 1.7 0.00 0.01 0.00 73 1018.5
20260905144116 51 246 0.0 1.7 0.00 0.03 0.00 73 1018.3
20260905143612 51 246 0.9 2.6 0.00 0.05 0.00 72 1018.3
20260905143112 51 246 0.0 2.6 0.00 0.05 0.00 72 1018.4
20260905142609 51 246 0.0 0.0 0.00 0.05 0.00 72 1018.4
20260905142108 51 246 0.0 0.0 0.00 0.06 0.00 72 1018.3
20260905141605 51 246 0.0 0.0 0.00 0.07 0.00 72 1018.1
20260905141105 51 246 0.0 0.0 0.00 0.07 0.00 72 1018.1
20260905140603 51 246 0.0 0.0 0.00 0.08 0.00 72 1017.9
20260905140104 51 246 0.0 0.0 0.00 0.08 0.00 72 1017.8
20260905135103 51 246 0.9 3.5 0.00 0.09 0.00 72 1017.6
20260905134603 51 246 1.7 4.3 0.00 0.09 0.00 72 1017.6
20260905134106 51 246 1.7 4.3 0.00 0.09 0.00 72 1017.6
20260905133603 51 226 0.9 3.5 0.00 0.09 0.00 72 1017.6
20260905132601 51 312 0.9 2.6 0.00 0.09 0.00 72 1017.7
20260905132101 51 312 0.9 2.6 0.00 0.10 0.00 71 1017.6
20260905131603 51 313 0.9 1.7 0.00 0.10 0.00 72 1017.5
20260905130559 51 313 0.9 2.6 0.00 0.10 0.00 71 1017.1
20260905130100 51 285 1.7 4.3 0.00 0.10 0.00 72 1017.1
20260905125559 51 288 1.7 4.3 0.00 0.10 0.00 72 1016.6
20260905125058 51 67 1.7 3.5 0.00 0.10 0.00 72 1016.5
20260905124559 51 344 2.6 5.2 0.00 0.10 0.00 71 1016.5
20260905124100 51 337 2.6 5.2 0.00 0.10 0.00 71 1016.5
20260905123600 51 333 0.9 3.5 0.00 0.10 0.00 72 1016.4
20260905122559 51 90 0.9 3.5 0.00 0.11 0.00 71 1016.6
20260905122052 51 69 0.0 2.6 0.00 0.11 0.00 72 1016.8
20260905121551 51 61 0.0 2.6 0.00 0.11 0.00 73 1016.8
20260905120549 51 275 0.0 0.9 0.00 0.11 0.00 73 1016.8
20260905120050 51 275 0.9 2.6 0.00 0.11 0.00 73 1016.9
20260905115548 51 275 0.9 2.6 0.00 0.11 0.00 73 1016.5
20260905115049 51 263 0.0 2.6 0.00 0.11 0.00 73 1016.7
20260905114550 51 234 0.0 0.0 0.00 0.11 0.00 73 1016.9
20260905114047 51 234 0.0 0.9 0.00 0.11 0.00 73 1016.9
20260905113547 51 233 0.0 0.9 0.00 0.11 0.00 73 1016.8
20260905112547 51 233 0.9 3.5 0.00 0.11 0.00 73 1016.8
20260905112046 51 234 0.9 4.3 0.00 0.11 0.00 72 1016.7
20260905111545 51 229 1.7 4.3 0.00 0.11 0.00 72 1016.6
20260905111044 51 215 0.9 4.3 0.00 0.11 0.00 73 1016.7
20260905110544 51 154 0.0 2.6 0.00 0.11 0.00 73 1016.7
20260905110046 51 205 0.0 0.0 0.00 0.11 0.00 73 1016.9
20260905105546 51 219 0.0 0.0 0.00 0.11 0.00 73 1016.8
20260905105043 51 212 0.0 0.0 0.00 0.11 0.00 72 1016.6
20260905104544 51 202 0.0 0.0 0.00 0.11 0.00 73 1016.6
20260905104043 51 194 0.0 0.0 0.00 0.11 0.00 73 1016.6
20260905103541 51 336 0.0 0.0 0.00 0.11 0.00 72 1016.5
20260905103039 51 339 0.0 0.0 0.00 0.11 0.00 72 1016.0
20260905102539 51 339 0.0 0.0 0.00 0.11 0.00 72 1016.1
20260905101539 51 339 0.0 0.0 0.00 0.11 0.00 72 1016.1
20260905101040 51 339 0.0 0.0 0.00 0.11 0.00 72 1016.1
20260905100539 51 339 0.0 0.0 0.00 0.11 0.00 72 1015.9
20260905100039 51 342 0.0 0.0 0.00 0.11 0.00 72 1015.9
20260905095540 51 343 0.0 0.0 0.00 0.11 0.00 72 1016.0
20260905095036 51 342 0.0 0.0 0.00 0.11 0.00 72 1016.0
20260905094534 51 342 0.0 0.0 0.00 0.11 0.00 71 1016.1
20260905094035 51 343 0.0 0.0 0.00 0.11 0.00 71 1016.2
20260905093535 51 342 0.0 0.0 0.00 0.11 0.00 71 1016.1
20260905092535 51 342 0.0 0.0 0.00 0.11 0.00 71 1016.2
20260905092034 51 343 0.0 0.0 0.00 0.11 0.00 71 1016.4
20260905091534 51 344 0.0 0.0 0.00 0.11 0.00 72 1016.4
20260905091035 51 344 0.0 0.0 0.00 0.11 0.00 72 1016.3
20260905090534 51 344 0.0 0.0 0.00 0.11 0.00 72 1015.9
20260905090034 51 344 0.0 0.0 0.00 0.11 0.00 72 1015.7
20260905085534 51 344 0.0 0.0 0.00 0.11 0.00 71 1016.0
20260905085035 51 343 0.0 0.0 0.00 0.11 0.00 72 1016.0
20260905084535 51 343 0.0 0.0 0.00 0.11 0.00 72 1016.2
20260905084036 51 343 0.0 0.0 0.00 0.11 0.00 72 1016.3
20260905083035 51 342 0.0 0.0 0.00 0.11 0.00 72 1016.3
20260905082535 51 344 0.0 0.0 0.00 0.11 0.00 72 1016.3
20260905082035 51 344 0.0 0.0 0.00 0.11 0.00 72 1016.2
20260905081537 51 344 0.0 0.0 0.00 0.11 0.00 72 1016.2
20260905081036 51 344 0.0 0.0 0.00 0.11 0.00 71 1016.3
20260905080536 51 344 0.0 0.0 0.00 0.11 0.00 72 1016.3
20260905075534 51 10 0.0 0.0 0.00 0.11 0.00 72 1016.4
20260905075037 52 11 0.0 0.0 0.00 0.11 0.00 71 1016.3
20260905073531 52 11 0.0 0.0 0.00 0.11 0.00 71 1016.4
20260905072529 52 11 0.0 0.0 0.00 0.11 0.00 69 1016.8
20260905071529 52 11 0.0 0.0 0.00 0.11 0.00 71 1016.8
20260905071031 52 12 0.0 0.0 0.00 0.11 0.00 71 1016.7
20260905070529 52 12 0.0 0.0 0.00 0.11 0.00 71 1016.6
20260905065531 51 12 0.0 0.0 0.00 0.11 0.00 70 1016.4
20260905065033 52 9 0.0 0.0 0.00 0.11 0.00 71 1016.2
20260905064531 52 9 0.0 0.0 0.00 0.11 0.00 70 1016.1
20260905064029 53 9 0.0 0.0 0.00 0.11 0.00 70 1015.9
20260905063532 53 9 0.0 0.0 0.00 0.11 0.00 70 1015.7
20260905062029 53 90 0.0 0.0 0.00 0.11 0.00 70 1016.2
20260905061530 53 90 0.0 0.0 0.00 0.11 0.00 69 1016.1
20260905061029 54 90 0.0 0.0 0.00 0.11 0.00 69 1016.0
20260905060529 54 90 0.0 0.0 0.00 0.11 0.00 69 1016.1
20260905060029 54 46 0.0 0.0 0.00 0.11 0.00 67 1016.2
20260905055529 54 46 0.0 0.0 0.00 0.11 0.11 67 1016.2
20260905055030 54 46 0.0 0.0 0.00 0.11 0.11 66 1016.2
20260905054529 54 46 0.0 0.0 0.00 0.11 0.11 66 1016.3
20260905053530 55 46 0.0 0.0 0.00 0.11 0.11 66 1016.5
20260905053029 55 46 0.0 3.5 0.00 0.11 0.11 66 1016.5
20260905052530 54 47 0.9 3.5 0.00 0.11 0.11 66 1016.6
20260905052029 54 78 0.0 2.6 0.00 0.11 0.11 66 1016.5
20260905051529 54 126 0.0 0.0 0.00 0.11 0.11 67 1016.6
20260905050531 54 329 0.0 0.0 0.00 0.11 0.11 67 1016.2
20260905050031 54 217 0.0 0.0 0.00 0.11 0.11 67 1016.0
20260905045530 54 217 0.0 0.0 0.00 0.11 0.11 66 1016.1
20260905045029 55 217 0.0 0.0 0.00 0.11 0.11 64 1016.2
20260905044530 55 217 0.0 0.0 0.00 0.11 0.11 64 1016.2
20260905044029 55 217 0.0 0.0 0.00 0.11 0.11 63 1016.3
20260905043531 55 217 0.0 0.0 0.00 0.11 0.11 62 1016.3
20260905043029 55 217 0.0 0.0 0.00 0.11 0.11 61 1016.3
20260905042530 55 217 0.0 0.0 0.00 0.11 0.11 62 1016.3
20260905042029 55 217 0.0 0.0 0.00 0.11 0.11 65 1016.3
20260905041530 55 217 0.0 0.0 0.00 0.11 0.11 64 1016.5
20260905040531 55 217 0.0 0.0 0.00 0.11 0.11 60 1016.2
20260905040029 55 217 0.0 0.0 0.00 0.11 0.11 61 1016.2
20260905035530 55 217 0.0 0.0 0.00 0.11 0.11 61 1016.2
20260905034529 55 218 0.0 0.0 0.00 0.11 0.11 69 1016.0
20260905033531 56 218 0.0 0.0 0.00 0.11 0.11 67 1016.0
20260905033030 56 217 0.0 0.0 0.00 0.11 0.11 66 1016.0
20260905032532 56 224 0.0 0.0 0.00 0.11 0.11 67 1015.9
20260905032031 56 225 0.0 0.0 0.00 0.11 0.11 67 1016.0
20260905031032 56 225 0.0 0.0 0.00 0.11 0.11 66 1016.0
20260905030529 56 225 0.0 0.0 0.00 0.11 0.11 65 1016.1
20260905030030 56 225 0.0 0.0 0.00 0.11 0.11 64 1016.2
20260905025530 56 225 0.0 0.0 0.00 0.11 0.11 64 1016.2
20260905025029 56 224 0.0 0.0 0.00 0.11 0.11 62 1016.3
20260905024529 56 0 0.0 0.0 0.00 0.11 0.11 62 1016.3
20260905024029 57 0 0.0 0.0 0.00 0.11 0.11 60 1016.2
20260905023529 57 0 0.0 0.0 0.00 0.11 0.11 60 1016.1
20260905022528 57 0 0.0 0.0 0.00 0.11 0.11 57 1016.0
20260905022029 57 0 0.0 0.0 0.00 0.11 0.11 56 1015.7
20260905021529 58 0 0.0 0.0 0.00 0.11 0.11 57 1015.7
20260905020529 58 0 0.0 0.0 0.00 0.11 0.11 59 1015.5
20260905020027 58 0 0.0 0.0 0.00 0.11 0.11 60 1015.4
20260905015521 58 0 0.0 0.0 0.00 0.11 0.11 61 1015.5
20260905015015 58 0 0.0 0.0 0.00 0.11 0.11 59 1015.4
20260905014516 59 0 0.0 0.0 0.00 0.11 0.11 59 1015.3
20260905013010 60 0 0.0 0.0 0.00 0.11 0.11 57 1015.1
20260905012508 60 0 0.0 0.0 0.00 0.11 0.11 56 1015.1
20260905012008 61 0 0.0 0.0 0.00 0.11 0.11 56 1015.0
20260905011507 61 0 0.0 0.0 0.00 0.11 0.11 56 1015.0
20260905011007 61 0 0.0 0.0 0.00 0.11 0.11 55 1015.2
20260905010004 62 0 0.0 0.0 0.00 0.11 0.11 55 1015.1
20260905005504 62 0 0.0 0.0 0.00 0.11 0.11 54 1015.2
20260905005005 62 0 0.0 0.0 0.00 0.11 0.11 52 1015.3
20260905004005 62 0 0.0 0.0 0.00 0.11 0.11 51 1015.4
20260905003502 62 0 0.0 0.0 0.00 0.11 0.11 50 1015.3
20260905003001 62 0 0.0 0.0 0.00 0.11 0.11 50 1015.2
20260905002504 62 0 0.0 0.0 0.00 0.11 0.11 50 1015.3
20260905002001 63 0 0.0 0.0 0.00 0.11 0.11 49 1015.2
20260905001458 63 0 0.0 0.0 0.00 0.11 0.11 48 1015.1
20260905000952 63 0 0.0 0.0 0.00 0.11 0.11 48 1014.8
20260905000449 63 0 0.0 0.0 0.00 0.11 0.11 47 1014.8
20260904235950 64 221 0.0 0.0 0.00 0.11 0.11 46 1014.9
20260904235448 64 221 0.0 0.0 0.00 0.11 0.11 44 1014.9
20260904234947 64 221 0.0 0.0 0.00 0.11 0.11 43 1014.9
20260904234447 64 220 0.0 0.0 0.00 0.11 0.11 45 1015.0
20260904233444 63 220 0.0 0.0 0.00 0.11 0.11 44 1014.9
20260904232942 63 220 0.0 0.0 0.00 0.11 0.11 45 1014.8
20260904232440 63 220 0.0 0.0 0.00 0.11 0.11 43 1014.9
20260904231937 64 220 0.0 0.0 0.00 0.11 0.11 43 1014.9
20260904230935 64 220 0.0 0.0 0.00 0.11 0.11 45 1015.0
20260904230432 64 0 0.0 0.0 0.00 0.11 0.11 45 1015.0
20260904225929 64 0 0.0 0.0 0.00 0.11 0.11 45 1015.2
20260904225429 63 0 0.0 0.9 0.00 0.11 0.11 46 1015.1
20260904224929 63 0 0.0 0.9 0.00 0.11 0.11 44 1015.1